Time,TemperatureF,DewpointF,PressureIn,WindDirection,WindDirectionDegrees,WindSpeedMPH,WindSpeedGustMPH,Humidity,HourlyPrecipIn,Conditions,Clouds,dailyrainin,SolarRadiationWatts/m^2,SoftwareType,DateUTC
2013-11-01 00:03:00,58.0,55.0,29.93,SSW,206,10.0,21.0,89,0.00,,,-99.99,0.000000,,2013-11-01 04:03:00,
2013-11-01 00:10:00,60.0,59.0,29.91,SSW,208,10.0,26.0,95,0.00,,,-99.99,0.000000,,2013-11-01 04:10:00,
2013-11-01 00:44:00,60.0,59.0,29.91,SSW,208,10.0,26.0,95,0.00,,,-99.99,0.000000,,2013-11-01 04:44:00,
2013-11-01 00:54:00,60.0,59.0,29.91,SSW,208,10.0,26.0,95,0.00,,,-99.99,0.000000,,2013-11-01 04:54:00,
2013-11-01 01:03:00,60.0,59.0,29.91,SSW,208,10.0,26.0,95,0.00,,,-99.99,0.000000,,2013-11-01 05:03:00,
2013-11-01 01:10:00,61.0,60.0,29.85,SSW,210,15.0,34.0,98,0.00,,,-99.99,0.000000,,2013-11-01 05:10:00,
2013-11-01 01:42:00,61.0,60.0,29.85,SSW,210,15.0,34.0,98,0.00,,,-99.99,0.000000,,2013-11-01 05:42:00,
2013-11-01 01:53:00,61.0,60.0,29.85,SSW,210,15.0,34.0,98,0.00,,,-99.99,0.000000,,2013-11-01 05:53:00,
2013-11-01 02:02:00,61.0,60.0,29.85,SSW,210,15.0,34.0,98,0.00,,,-99.99,0.000000,,2013-11-01 06:02:00,
2013-11-01 02:10:00,62.0,61.0,29.83,SW,215,13.0,36.0,95,0.00,,,-99.99,0.000000,,2013-11-01 06:10:00,
2013-11-01 02:42:00,62.0,61.0,29.83,SW,215,13.0,36.0,95,0.00,,,-99.99,0.000000,,2013-11-01 06:42:00,
2013-11-01 02:52:00,62.0,61.0,29.83,SW,215,13.0,36.0,95,0.00,,,-99.99,0.000000,,2013-11-01 06:52:00,
2013-11-01 03:02:00,62.0,61.0,29.83,SW,215,13.0,36.0,95,0.00,,,-99.99,0.000000,,2013-11-01 07:02:00,
2013-11-01 03:10:00,61.0,57.0,29.80,SSW,212,17.0,37.0,88,0.00,,,-99.99,0.000000,,2013-11-01 07:10:00,
2013-11-01 03:42:00,61.0,57.0,29.80,SSW,212,17.0,37.0,88,0.00,,,-99.99,0.000000,,2013-11-01 07:42:00,
2013-11-01 03:52:00,61.0,57.0,29.80,SSW,212,17.0,37.0,88,0.00,,,-99.99,0.000000,,2013-11-01 07:52:00,
2013-11-01 04:03:00,61.0,57.0,29.80,SSW,212,17.0,37.0,88,0.00,,,-99.99,0.000000,,2013-11-01 08:03:00,
2013-11-01 04:10:00,63.0,57.0,29.79,SW,219,20.0,51.0,80,0.00,,,-99.99,0.000000,,2013-11-01 08:10:00,
2013-11-01 04:42:00,63.0,57.0,29.79,SW,219,20.0,51.0,80,0.00,,,-99.99,0.000000,,2013-11-01 08:42:00,
2013-11-01 04:52:00,63.0,57.0,29.79,SW,219,20.0,51.0,80,0.00,,,-99.99,0.000000,,2013-11-01 08:52:00,
2013-11-01 05:02:00,63.0,57.0,29.79,SW,219,20.0,51.0,80,0.00,,,-99.99,0.000000,,2013-11-01 09:02:00,
2013-11-01 05:10:00,61.0,55.0,29.79,SW,221,14.0,48.0,80,0.00,,,-99.99,0.000000,,2013-11-01 09:10:00,
2013-11-01 05:43:00,61.0,55.0,29.79,SW,221,14.0,48.0,80,0.00,,,-99.99,0.000000,,2013-11-01 09:43:00,
2013-11-01 05:53:00,61.0,55.0,29.79,SW,221,14.0,48.0,80,0.00,,,-99.99,0.000000,,2013-11-01 09:53:00,
2013-11-01 06:03:00,61.0,55.0,29.79,SW,221,14.0,48.0,80,0.00,,,-99.99,0.000000,,2013-11-01 10:03:00,
2013-11-01 06:10:00,61.0,55.0,29.77,SW,220,18.0,44.0,80,0.00,,,-99.99,0.000000,,2013-11-01 10:10:00,
2013-11-01 06:43:00,61.0,55.0,29.77,SW,220,18.0,44.0,80,0.00,,,-99.99,0.000000,,2013-11-01 10:43:00,
2013-11-01 06:53:00,61.0,55.0,29.77,SW,220,18.0,44.0,80,0.00,,,-99.99,0.000000,,2013-11-01 10:53:00,
2013-11-01 07:03:00,61.0,55.0,29.77,SW,220,18.0,44.0,80,0.00,,,-99.99,0.000000,,2013-11-01 11:03:00,
2013-11-01 07:10:00,62.0,57.0,29.77,SW,220,13.0,36.0,83,0.00,,,-99.99,0.000000,,2013-11-01 11:10:00,
2013-11-01 07:42:00,62.0,57.0,29.77,SW,220,13.0,36.0,83,0.00,,,-99.99,0.000000,,2013-11-01 11:42:00,
2013-11-01 07:52:00,62.0,57.0,29.77,SW,220,13.0,36.0,83,0.00,,,-99.99,0.000000,,2013-11-01 11:52:00,
2013-11-01 08:02:00,62.0,57.0,29.77,SW,220,13.0,36.0,83,0.00,,,-99.99,0.000000,,2013-11-01 12:02:00,
2013-11-01 08:10:00,61.0,58.0,29.81,WSW,245,6.0,33.0,89,0.00,,,-99.99,0.000000,,2013-11-01 12:10:00,
2013-11-01 08:42:00,61.0,58.0,29.81,WSW,245,6.0,33.0,89,0.00,,,-99.99,0.000000,,2013-11-01 12:42:00,
2013-11-01 08:52:00,61.0,58.0,29.81,WSW,245,6.0,33.0,89,0.00,,,-99.99,0.000000,,2013-11-01 12:52:00,
2013-11-01 09:02:00,61.0,58.0,29.81,WSW,245,6.0,33.0,89,0.00,,,-99.99,0.000000,,2013-11-01 13:02:00,
2013-11-01 09:10:00,57.0,53.0,29.83,WNW,297,7.0,23.0,86,0.01,,,-99.99,0.000000,,2013-11-01 13:10:00,
2013-11-01 09:42:00,57.0,53.0,29.83,WNW,297,7.0,23.0,86,0.01,,,-99.99,0.000000,,2013-11-01 13:42:00,
2013-11-01 09:52:00,57.0,53.0,29.83,WNW,297,7.0,23.0,86,0.01,,,-99.99,0.000000,,2013-11-01 13:52:00,
2013-11-01 10:02:00,57.0,53.0,29.83,WNW,297,7.0,23.0,86,0.01,,,-99.99,0.000000,,2013-11-01 14:02:00,
2013-11-01 10:10:00,60.0,54.0,29.85,NNE,18,5.0,16.0,80,0.00,,,-99.99,29.000000,,2013-11-01 14:10:00,
2013-11-01 10:42:00,60.0,54.0,29.85,NNE,18,5.0,16.0,80,0.00,,,-99.99,29.000000,,2013-11-01 14:42:00,
2013-11-01 10:52:00,60.0,54.0,29.85,NNE,18,5.0,16.0,80,0.00,,,-99.99,29.000000,,2013-11-01 14:52:00,
2013-11-01 11:02:00,60.0,54.0,29.85,NNE,18,5.0,16.0,80,0.00,,,-99.99,29.000000,,2013-11-01 15:02:00,
2013-11-01 11:10:00,59.0,54.0,29.83,South,182,4.0,13.0,83,0.00,,,0.02,94.000000,,2013-11-01 15:10:00,
2013-11-01 11:44:00,59.0,54.0,29.83,South,182,4.0,13.0,83,0.00,,,0.02,94.000000,,2013-11-01 15:44:00,
2013-11-01 11:54:00,59.0,54.0,29.83,South,182,4.0,13.0,83,0.00,,,0.02,94.000000,,2013-11-01 15:54:00,
2013-11-01 12:04:00,59.0,54.0,29.83,South,182,4.0,13.0,83,0.00,,,0.02,94.000000,,2013-11-01 16:04:00,
2013-11-01 12:10:00,70.0,59.0,29.82,SSW,192,7.0,13.0,67,0.00,,,0.01,138.000000,,2013-11-01 16:10:00,
2013-11-01 12:43:00,70.0,59.0,29.82,SSW,192,7.0,13.0,67,0.00,,,0.01,138.000000,,2013-11-01 16:43:00,
2013-11-01 12:53:00,70.0,59.0,29.82,SSW,192,7.0,13.0,67,0.00,,,0.01,138.000000,,2013-11-01 16:53:00,
2013-11-01 13:02:00,70.0,59.0,29.82,SSW,192,7.0,13.0,67,0.00,,,0.01,138.000000,,2013-11-01 17:02:00,
2013-11-01 13:10:00,72.0,57.0,29.78,SSW,206,8.0,15.0,60,0.00,,,0.01,600.000000,,2013-11-01 17:10:00,
2013-11-01 13:43:00,72.0,57.0,29.78,SSW,206,8.0,15.0,60,0.00,,,0.01,600.000000,,2013-11-01 17:43:00,
2013-11-01 13:52:00,72.0,57.0,29.78,SSW,206,8.0,15.0,60,0.00,,,0.01,600.000000,,2013-11-01 17:52:00,
2013-11-01 14:01:00,72.0,57.0,29.78,SSW,206,8.0,15.0,60,0.00,,,0.01,600.000000,,2013-11-01 18:01:00,
2013-11-01 14:10:00,71.0,54.0,29.76,South,191,7.0,15.0,54,0.00,,,0.01,821.000000,,2013-11-01 18:10:00,
2013-11-01 14:42:00,71.0,54.0,29.76,South,191,7.0,15.0,54,0.00,,,0.01,821.000000,,2013-11-01 18:42:00,
2013-11-01 14:52:00,71.0,54.0,29.76,South,191,7.0,15.0,54,0.00,,,0.01,821.000000,,2013-11-01 18:52:00,
2013-11-01 15:02:00,71.0,54.0,29.76,South,191,7.0,15.0,54,0.00,,,0.01,821.000000,,2013-11-01 19:02:00,
2013-11-01 15:10:00,69.0,55.0,29.74,SSW,198,8.0,21.0,61,0.00,,,0.01,705.000000,,2013-11-01 19:10:00,
2013-11-01 15:42:00,69.0,55.0,29.74,SSW,198,8.0,21.0,61,0.00,,,0.01,705.000000,,2013-11-01 19:42:00,
2013-11-01 15:52:00,69.0,55.0,29.74,SSW,198,8.0,21.0,61,0.00,,,0.01,705.000000,,2013-11-01 19:52:00,
2013-11-01 16:02:00,69.0,55.0,29.74,SSW,198,8.0,21.0,61,0.00,,,0.01,705.000000,,2013-11-01 20:02:00,
2013-11-01 16:10:00,67.0,54.0,29.73,SSW,197,9.0,23.0,64,0.00,,,0.01,401.000000,,2013-11-01 20:10:00,
2013-11-01 16:42:00,67.0,54.0,29.73,SSW,197,9.0,23.0,64,0.00,,,0.01,401.000000,,2013-11-01 20:42:00,
2013-11-01 16:52:00,67.0,54.0,29.73,SSW,197,9.0,23.0,64,0.00,,,0.01,401.000000,,2013-11-01 20:52:00,
2013-11-01 17:01:00,67.0,54.0,29.73,SSW,197,9.0,23.0,64,0.00,,,0.01,401.000000,,2013-11-01 21:01:00,
2013-11-01 17:10:00,67.0,56.0,29.72,SSW,199,7.0,17.0,68,0.00,,,0.01,285.000000,,2013-11-01 21:10:00,
2013-11-01 17:44:00,67.0,56.0,29.72,SSW,199,7.0,17.0,68,0.00,,,0.01,285.000000,,2013-11-01 21:44:00,
2013-11-01 17:55:00,67.0,56.0,29.72,SSW,199,7.0,17.0,68,0.00,,,0.01,285.000000,,2013-11-01 21:55:00,
2013-11-01 18:03:00,67.0,56.0,29.72,SSW,199,7.0,17.0,68,0.00,,,0.01,285.000000,,2013-11-01 22:03:00,
2013-11-01 18:10:00,62.0,55.0,29.75,SSW,206,9.0,16.0,77,0.00,,,0.01,237.000000,,2013-11-01 22:10:00,
2013-11-01 18:42:00,62.0,55.0,29.75,SSW,206,9.0,16.0,77,0.00,,,0.01,237.000000,,2013-11-01 22:42:00,
2013-11-01 18:53:00,62.0,55.0,29.75,SSW,206,9.0,16.0,77,0.00,,,0.01,237.000000,,2013-11-01 22:53:00,
2013-11-01 19:03:00,62.0,55.0,29.75,SSW,206,9.0,16.0,77,0.00,,,0.01,237.000000,,2013-11-01 23:03:00,
2013-11-01 19:10:00,61.0,56.0,29.76,SSW,212,7.0,17.0,85,0.00,,,0.01,73.000000,,2013-11-01 23:10:00,
2013-11-01 19:42:00,61.0,56.0,29.76,SSW,212,7.0,17.0,85,0.00,,,0.01,73.000000,,2013-11-01 23:42:00,
2013-11-01 19:53:00,61.0,56.0,29.76,SSW,212,7.0,17.0,85,0.00,,,0.01,73.000000,,2013-11-01 23:53:00,
2013-11-01 20:02:00,61.0,56.0,29.76,SSW,212,7.0,17.0,85,0.00,,,0.01,73.000000,,2013-11-02 00:02:00,
2013-11-01 20:10:00,60.0,57.0,29.77,WSW,251,4.0,15.0,89,0.00,,,0.01,2.000000,,2013-11-02 00:10:00,
2013-11-01 20:42:00,60.0,57.0,29.77,WSW,251,4.0,15.0,89,0.00,,,0.01,2.000000,,2013-11-02 00:42:00,
2013-11-01 20:52:00,60.0,57.0,29.77,WSW,251,4.0,15.0,89,0.00,,,0.01,2.000000,,2013-11-02 00:52:00,
2013-11-01 21:02:00,60.0,57.0,29.77,WSW,251,4.0,15.0,89,0.00,,,0.01,2.000000,,2013-11-02 01:02:00,
2013-11-01 21:10:00,59.0,51.0,29.78,NNW,341,9.0,19.0,76,0.00,,,0.01,0.000000,,2013-11-02 01:10:00,
2013-11-01 21:42:00,59.0,51.0,29.78,NNW,341,9.0,19.0,76,0.00,,,0.01,0.000000,,2013-11-02 01:42:00,
2013-11-01 21:52:00,59.0,51.0,29.78,NNW,341,9.0,19.0,76,0.00,,,0.01,0.000000,,2013-11-02 01:52:00,
2013-11-01 22:02:00,59.0,51.0,29.78,NNW,341,9.0,19.0,76,0.00,,,0.01,0.000000,,2013-11-02 02:02:00,
2013-11-01 22:10:00,59.0,40.0,29.78,NW,323,9.0,25.0,50,0.00,,,0.01,0.000000,,2013-11-02 02:10:00,
2013-11-01 22:42:00,59.0,40.0,29.78,NW,323,9.0,25.0,50,0.00,,,0.01,0.000000,,2013-11-02 02:42:00,
2013-11-01 22:53:00,59.0,40.0,29.78,NW,323,9.0,25.0,50,0.00,,,0.01,0.000000,,2013-11-02 02:53:00,
2013-11-01 23:02:00,59.0,40.0,29.78,NW,323,9.0,25.0,50,0.00,,,0.01,0.000000,,2013-11-02 03:02:00,
2013-11-01 23:10:00,58.0,43.0,29.78,NNW,332,10.0,22.0,57,0.00,,,0.01,0.000000,,2013-11-02 03:10:00,
2013-11-01 23:44:00,58.0,43.0,29.78,NNW,332,10.0,22.0,57,0.00,,,0.01,0.000000,,2013-11-02 03:44:00,
2013-11-01 23:54:00,58.0,43.0,29.78,NNW,332,10.0,22.0,57,0.00,,,0.01,0.000000,,2013-11-02 03:54:00,